Hourly Data Report for June 18, 2020

TORONTO CITY
ONTARIO
Current Station Operator: ECCC - MSC

43°40'00.000" N
79°24'00.000" W
112.50 m
6158355
71508
XTO

Download Data

Hourly Data (June 2020)
Hourly Data Report for June 18, 2020
TIME
LST
Temp Definition
°C
Dew Point Definition
°C
Rel Hum Definition
%
Precip. Amount Definition
mm

Wind Dir Definition
10's deg

Wind Spd Definition
km/h
Visibility Definition
km
Stn Press Definition
kPa
Hmdx Definition


Wind Chill Definition


Weather Definition


00:00 17.5 10.4 63 0.0       100.70     LegendNANA
01:00 17.5 10.5 63 0.0       100.68     LegendNANA
02:00 17.7 10.7 63 0.0       100.64     LegendNANA
03:00 18.6 9.4 55 0.0       100.63     LegendNANA
04:00 17.9 9.5 58 0.0       100.66     LegendNANA
05:00 16.9 9.6 62 0.0       100.69     LegendNANA
06:00 18.1 9.9 59 0.0       100.68     LegendNANA
07:00 20.4 9.8 51 0.0       100.73     LegendNANA
08:00 22.5 8.7 41 0.0       100.74     LegendNANA
09:00 23.6 8.6 38 0.0       100.73     LegendNANA
10:00 24.1 9.1 39 0.0       100.74 25   LegendNANA
11:00 24.6 10.4 41 0.0       100.70 26   LegendNANA
12:00 26.3 10.3 37 0.0       100.64 28   LegendNANA
13:00 27.1 10.7 36 0.0       100.59 29   LegendNANA
14:00 26.4 10.1 36 0.2       100.56 28   LegendNANA
15:00 28.4 8.6 29 0.0       100.49 29   LegendNANA
16:00 28.3 8.4 29 0.2       100.40 29   LegendNANA
17:00 26.9 8.7 32 0.5       100.37 28   LegendNANA
18:00 26.2 7.8 31 0.0       100.38 27   LegendNANA
19:00 26.2 7.2 30 0.0       100.34 26   LegendNANA
20:00 25.5 6.6 30 0.0       100.33 25   LegendNANA
21:00 24.2 6.9 33 0.0       100.35     LegendNANA
22:00 23.1 8.6 40 0.0       100.31     LegendNANA
23:00 23.2 10.2 44 0.0       100.30 25   LegendNANA

Notes on Data Quality.

Legend

  • E = Estimated
  • M = Missing
  • NA = Not Available*
  • [empty] = Indicates an unobserved value
Date modified: